GW5271 Weather Reports


time (UTC)temp
F
wind
direction
speed
knots
gust
knots
rain 1hr
in
rain 24hr
in
rain mn
in
humidity
%
barometer
mb
20260505035653 47 173 0.0 0.0 0.00 0.00 0.00 97 1012.5
20260505035150 47 146 0.0 0.0 0.00 0.00 0.00 96 1012.4
20260505034646 47 200 0.0 0.0 0.00 0.00 0.00 96 1012.1
20260505034144 47 213 0.0 0.0 0.00 0.00 0.00 96 1012.3
20260505033640 47 241 0.0 0.0 0.00 0.00 0.00 95 1012.3
20260505033139 47 216 0.0 0.0 0.00 0.00 0.00 95 1012.4
20260505032636 47 216 0.0 0.0 0.00 0.00 0.00 95 1012.3
20260505032132 47 161 0.0 0.0 0.00 0.00 0.00 95 1012.3
20260505031630 48 124 0.0 0.0 0.00 0.00 0.00 95 1012.5
20260505031125 47 120 0.9 0.9 0.00 0.00 0.00 96 1012.3
20260505030623 47 248 0.0 0.0 0.00 0.00 0.00 94 1012.4
20260505030119 47 283 0.0 0.0 0.00 0.00 0.00 93 1012.3
20260505025614 47 297 0.0 0.0 0.00 0.00 0.00 93 1012.4
20260505025114 48 266 0.0 0.9 0.00 0.00 0.00 94 1012.4
20260505024610 48 359 0.0 0.0 0.00 0.00 0.00 93 1012.7
20260505024108 49 134 0.0 0.0 0.00 0.00 0.00 94 1012.5
20260505023605 48 235 0.0 0.0 0.00 0.00 0.00 93 1012.6
20260505023102 49 272 0.0 0.0 0.00 0.00 0.00 93 1012.4
20260505022600 49 208 0.0 0.0 0.00 0.00 0.00 92 1012.4
20260505022056 49 201 0.0 0.0 0.00 0.00 0.00 92 1012.5
20260505021553 49 256 0.0 0.0 0.00 0.00 0.00 93 1012.4
20260505021050 49 256 0.0 0.0 0.00 0.00 0.00 90 1012.7
20260505020549 49 256 0.0 0.0 0.00 0.00 0.00 90 1012.7
20260505020047 50 120 0.0 0.0 0.00 0.00 0.00 91 1012.6
20260505015544 50 120 0.0 0.0 0.00 0.00 0.00 90 1012.8
20260505015041 51 120 0.0 0.0 0.00 0.00 0.00 87 1012.7
20260505014537 51 120 0.0 0.0 0.00 0.00 0.00 87 1012.7
20260505014035 52 120 0.0 0.0 0.00 0.00 0.00 87 1012.9
20260505013531 53 120 0.0 0.0 0.00 0.00 0.00 85 1012.8
20260505013029 53 123 0.0 0.0 0.00 0.00 0.00 83 1012.8
20260505012527 53 122 0.0 0.0 0.00 0.00 0.00 83 1012.7
20260505012024 53 145 0.0 0.0 0.00 0.00 0.00 83 1012.7
20260505011519 53 312 0.0 0.0 0.00 0.00 0.00 82 1012.6
20260505011017 54 43 0.0 0.0 0.00 0.00 0.00 80 1012.7
20260505010512 54 43 0.0 0.0 0.00 0.00 0.00 79 1012.8
20260505010009 55 43 0.0 0.0 0.00 0.00 0.00 77 1012.5
20260505005505 56 43 0.0 0.0 0.00 0.00 0.00 75 1012.6
20260505005004 57 43 0.0 0.0 0.00 0.00 0.00 73 1012.5
20260505004500 58 43 0.0 0.0 0.00 0.00 0.00 72 1012.7
20260505003956 59 42 0.0 0.0 0.00 0.00 0.00 70 1012.5
20260505003454 60 42 0.0 0.0 0.00 0.00 0.00 67 1012.3
20260505002950 61 36 0.9 0.9 0.00 0.00 0.00 66 1012.3
20260505002446 62 266 0.0 0.0 0.00 0.00 0.00 63 1012.5
20260505001945 64 216 0.0 0.0 0.00 0.00 0.00 59 1012.5
20260505001442 65 216 0.0 0.9 0.00 0.00 0.00 57 1012.5
20260505000938 65 208 0.9 0.9 0.00 0.00 0.00 55 1012.7
20260505000437 65 241 0.9 0.9 0.00 0.00 0.00 55 1012.7
20260504235933 66 281 0.9 1.7 0.00 0.00 0.00 55 1012.6
20260504235431 66 226 0.9 2.6 0.00 0.00 0.00 53 1012.3
20260504234926 67 276 0.9 0.9 0.00 0.00 0.00 54 1012.3
20260504234424 67 241 3.5 6.1 0.00 0.00 0.00 52 1012.3
20260504233920 67 245 1.7 6.1 0.00 0.00 0.00 51 1012.3
20260504233416 67 216 2.6 5.2 0.00 0.00 0.00 52 1012.1
20260504232913 67 195 3.5 7.0 0.00 0.00 0.00 51 1012.0
20260504232410 68 215 0.9 5.2 0.00 0.00 0.00 52 1012.3
20260504231908 68 261 5.2 6.1 0.00 0.00 0.00 50 1011.7
20260504231403 68 285 5.2 7.8 0.00 0.00 0.00 51 1011.9
20260504230900 68 224 4.3 6.1 0.00 0.00 0.00 51 1011.7
20260504230357 68 212 2.6 6.1 0.00 0.00 0.00 52 1011.7
20260504225856 68 271 4.3 6.1 0.00 0.00 0.00 51 1011.7
20260504225352 68 243 3.5 7.0 0.00 0.00 0.00 51 1012.0
20260504224850 68 218 3.5 6.1 0.00 0.00 0.00 53 1011.7
20260504224346 67 228 3.5 7.0 0.00 0.00 0.00 53 1011.9
20260504223843 67 257 0.9 2.6 0.00 0.00 0.00 53 1012.0
20260504223338 68 186 1.7 5.2 0.00 0.00 0.00 52 1012.1
20260504222835 69 233 4.3 6.1 0.00 0.00 0.00 53 1012.1
20260504222332 68 241 2.6 7.0 0.00 0.00 0.00 52 1012.3
20260504221831 67 231 2.6 3.5 0.00 0.00 0.00 53 1012.3
20260504221327 67 273 2.6 5.2 0.00 0.00 0.00 53 1012.1
20260504220824 67 263 2.6 5.2 0.00 0.00 0.00 55 1012.1
20260504220321 68 218 5.2 7.0 0.00 0.00 0.00 52 1011.9
20260504215818 67 212 4.3 6.1 0.00 0.00 0.00 54 1012.1
20260504215314 67 261 3.5 6.1 0.00 0.00 0.00 53 1011.8
20260504214811 68 218 0.9 3.5 0.00 0.00 0.00 51 1012.3
20260504214308 68 217 2.6 6.1 0.00 0.00 0.00 53 1012.4
20260504213804 68 276 3.5 7.8 0.00 0.00 0.00 49 1012.1
20260504213300 69 313 7.0 9.6 0.00 0.00 0.00 49 1012.1
20260504212758 69 318 3.5 6.1 0.00 0.00 0.00 50 1012.0
20260504212254 69 302 6.1 9.6 0.00 0.00 0.00 49 1012.3
20260504211752 68 285 3.5 8.7 0.00 0.00 0.00 49 1012.1
20260504211247 69 222 4.3 7.0 0.00 0.00 0.00 49 1011.9
20260504210745 69 289 3.5 7.8 0.00 0.00 0.00 49 1012.3
20260504210242 69 277 4.3 7.0 0.00 0.00 0.00 49 1012.4
20260504205739 69 318 7.0 9.6 0.00 0.00 0.00 48 1012.3
20260504205237 69 292 7.0 9.6 0.00 0.00 0.00 48 1012.1
20260504204735 70 315 4.3 11.3 0.00 0.00 0.00 49 1012.0
20260504204233 70 232 7.8 9.6 0.00 0.00 0.00 48 1011.9
20260504203732 70 238 5.2 8.7 0.00 0.00 0.00 46 1011.8
20260504203229 70 218 6.1 12.2 0.00 0.00 0.00 48 1012.0
20260504202729 71 202 4.3 7.8 0.00 0.00 0.00 46 1011.9
20260504202226 70 270 3.5 7.0 0.00 0.00 0.00 47 1011.9
20260504201723 71 272 5.2 12.2 0.00 0.00 0.00 46 1011.9
20260504201220 71 289 7.8 9.6 0.00 0.00 0.00 44 1012.0
20260504200718 70 273 3.5 7.0 0.00 0.00 0.00 46 1011.9
20260504200214 70 273 3.5 8.7 0.00 0.00 0.00 47 1012.0
20260504195711 71 241 6.1 11.3 0.00 0.00 0.00 44 1011.9
20260504195206 72 247 3.5 12.2 0.00 0.00 0.00 48 1011.9
20260504194703 72 198 6.1 13.0 0.00 0.00 0.00 45 1011.7
20260504194159 71 226 7.8 13.0 0.00 0.00 0.00 47 1012.1
20260504193656 70 233 4.3 11.3 0.00 0.00 0.00 49 1012.0
20260504193154 72 279 5.2 11.3 0.00 0.00 0.00 46 1012.1
20260504192652 71 248 3.5 7.8 0.00 0.00 0.00 50 1012.1
20260504192150 71 296 8.7 13.0 0.00 0.00 0.00 47 1012.5
20260504191649 70 256 11.3 13.9 0.00 0.00 0.00 46 1012.6
20260504191144 70 214 7.8 13.0 0.00 0.00 0.00 48 1012.4
20260504190640 70 283 5.2 11.3 0.00 0.00 0.00 49 1012.5
20260504190137 71 283 5.2 8.7 0.00 0.00 0.00 48 1012.4
20260504185633 69 285 6.1 8.7 0.00 0.00 0.00 48 1012.5
20260504185130 70 219 10.4 18.2 0.00 0.00 0.00 48 1012.8
20260504184626 70 252 4.3 8.7 0.00 0.00 0.00 50 1012.8
20260504184121 70 222 6.1 11.3 0.00 0.00 0.00 50 1012.8
20260504183618 69 243 4.3 12.2 0.00 0.00 0.00 49 1012.8
20260504183116 69 249 6.1 11.3 0.00 0.00 0.00 51 1012.9
20260504182613 69 238 4.3 12.2 0.00 0.00 0.00 53 1013.1
20260504182110 68 216 3.5 12.2 0.00 0.00 0.00 56 1012.9
20260504181608 68 216 7.0 11.3 0.00 0.00 0.00 51 1013.1
20260504181105 67 207 7.0 13.0 0.00 0.00 0.00 55 1013.2
20260504180604 68 221 3.5 9.6 0.00 0.00 0.00 56 1013.2
20260504180103 69 202 6.1 8.7 0.00 0.00 0.00 57 1013.2
20260504175600 68 262 2.6 5.2 0.00 0.00 0.00 54 1013.4
20260504175056 66 288 5.2 7.8 0.00 0.00 0.00 57 1013.4
20260504174554 67 253 9.6 9.6 0.00 0.00 0.00 53 1013.5
20260504174051 66 271 6.1 9.6 0.00 0.00 0.00 55 1013.5
20260504173548 65 283 3.5 11.3 0.00 0.00 0.00 57 1013.6
20260504173045 65 285 3.5 11.3 0.00 0.00 0.00 56 1013.7
20260504172541 65 250 7.0 11.3 0.00 0.00 0.00 55 1013.9
20260504172038 65 209 3.5 6.1 0.00 0.00 0.00 59 1014.1
20260504171535 64 228 4.3 13.0 0.00 0.00 0.00 58 1014.0
20260504171032 65 288 7.8 14.8 0.00 0.00 0.00 55 1014.2
20260504170527 66 285 6.1 8.7 0.00 0.00 0.00 56 1013.9
20260504150912 62 268 5.2 9.6 0.00 0.00 0.00 52 1015.4
20260504150408 63 254 7.8 13.0 0.00 0.00 0.00 50 1015.5
20260504140835 61 297 7.0 12.2 0.00 0.00 0.00 49 1015.0
20260504140330 61 226 9.6 13.0 0.00 0.00 0.00 48 1015.4
20260504130759 59 212 3.5 6.1 0.00 0.00 0.00 52 1015.0
20260504130255 58 165 3.5 7.0 0.00 0.00 0.00 51 1015.1
20260504120219 52 155 1.7 2.6 0.00 0.00 0.00 65 1015.6
20260504110646 46 107 0.0 0.0 0.00 0.00 0.00 82 1015.6
20260504110143 46 150 0.0 1.7 0.00 0.00 0.00 81 1015.7
20260504100609 44 142 0.0 0.0 0.00 0.00 0.00 90 1015.9
20260504100108 44 143 0.0 0.0 0.00 0.00 0.00 89 1016.1
20260504082002 48 123 1.7 1.7 0.00 0.00 0.00 65 1016.4
20260504081500 48 120 0.0 0.9 0.00 0.00 0.00 66 1016.4
20260504080955 48 113 0.0 0.0 0.00 0.00 0.00 67 1016.5
20260504080452 48 160 0.0 0.0 0.00 0.00 0.00 67 1016.5
20260504050305 43 124 0.0 0.0 0.00 0.00 0.00 88 1017.0
20260504045803 43 130 0.0 0.0 0.00 0.00 0.00 88 1017.1
20260504045304 43 130 0.0 0.0 0.00 0.00 0.00 90 1017.1
20260504044800 43 127 0.0 0.0 0.00 0.00 0.00 90 1017.1
20260504044257 43 141 0.0 0.0 0.00 0.00 0.00 88 1017.1
20260504043754 43 141 0.0 0.0 0.00 0.00 0.00 87 1017.0
20260504043251 43 141 0.0 0.0 0.00 0.00 0.00 89 1017.0
20260504042749 43 141 0.0 0.0 0.00 0.00 0.00 90 1017.2
20260504042245 43 141 0.0 0.0 0.00 0.00 0.00 90 1017.1
20260504041741 43 141 0.0 0.0 0.00 0.00 0.00 88 1017.1
20260504041237 43 143 0.0 0.0 0.00 0.00 0.00 87 1017.1
20260504040734 43 146 0.0 0.0 0.00 0.00 0.00 87 1017.1
20260504040232 42 146 0.0 0.0 0.00 0.00 0.00 86 1017.3